This is the latest recevied weather packets stored in our database for station/object K7AEL. If no packets are shown the sender has not sent any weather packets the latest 10 day(s).
| Time | Temp. | Humidity | Pressure | Rain* | Wind** | Luminosity | Snow |
|---|---|---|---|---|---|---|---|
| 1778100070 | 25.56° C | 25% | 1015.8 hPa | 0 mm | - | 696 W/m² | - |
| 1778099768 | 26.11° C | 25% | 1015.9 hPa | 0 mm | - | 704 W/m² | - |
| 1778099464 | 26.11° C | 26% | 1016.1 hPa | 0 mm | - | 709 W/m² | - |
| 1778099162 | 26.11° C | 25% | 1016 hPa | 0 mm | - | 714 W/m² | - |
| 1778098858 | 25.56° C | 26% | 1016 hPa | 0 mm | - | 720 W/m² | - |
| 1778098555 | 26.67° C | 25% | 1016 hPa | 0 mm | - | 723 W/m² | - |
| 1778098252 | 26.11° C | 25% | 1016.3 hPa | 0 mm | - | 727 W/m² | - |
| 1778097948 | 26.11° C | 25% | 1016.4 hPa | 0 mm | - | 734 W/m² | - |
| 1778097645 | 25° C | 27% | 1016.3 hPa | 0 mm | - | 740 W/m² | - |
| 1778097342 | 26.11° C | 27% | 1016.4 hPa | 0 mm | - | 742 W/m² | - |
| 1778097038 | 25.56° C | 27% | 1016.4 hPa | 0 mm | - | 747 W/m² | - |
| 1778096736 | 26.11° C | 26% | 1016.5 hPa | 0 mm | - | 747 W/m² | - |
| 1778096432 | 26.11° C | 27% | 1016.3 hPa | 0 mm | - | 750 W/m² | - |
| 1778096130 | 25° C | 28% | 1016.6 hPa | 0 mm | - | 751 W/m² | - |
| 1778095827 | 25° C | 28% | 1016.8 hPa | 0 mm | - | 755 W/m² | - |
| 1778095524 | 24.44° C | 28% | 1016.7 hPa | 0 mm | - | 756 W/m² | - |
| 1778095219 | 24.44° C | 29% | 1016.8 hPa | 0 mm | - | 754 W/m² | - |
| 1778094916 | 24.44° C | 28% | 1016.8 hPa | 0 mm | - | 756 W/m² | - |
| 1778094613 | 24.44° C | 29% | 1017 hPa | 0 mm | - | 758 W/m² | - |
| 1778094310 | 25° C | 28% | 1016.9 hPa | 0 mm | - | 757 W/m² | - |
| 1778094007 | 25° C | 28% | 1016.9 hPa | 0 mm | - | 756 W/m² | - |
| 1778093704 | 24.44° C | 29% | 1017.1 hPa | 0 mm | - | 757 W/m² | - |
| 1778093400 | 25° C | 29% | 1017.2 hPa | 0 mm | - | 756 W/m² | - |
| 1778093098 | 24.44° C | 29% | 1017.2 hPa | 0 mm | - | 753 W/m² | - |
| 1778092795 | 24.44° C | 29% | 1017.4 hPa | 0 mm | - | 748 W/m² | - |
* Rain latest hour (hover to see other rain measurements)
** Current wind speed in m/s (hover to see current wind gust speed)